Wind_Speed
35 35 33 32 31 28 26 23 21 19 19 19 20 21 21 21 20 20 20 20 19 19 19 19 19 20 21 21 22 22 22 22 22 23 24 24 24 24
36 36 35 34 32 31 29 27 25 24 22 21 20 21 21 21 21 20 21 21 21 20 20 20 21 21 21 21 22 22 22 23 23 24 25 25 25 24
35 36 36 35 33 33 31 30 29 28 26 25 24 23 23 22 22 21 20 21 21 21 21 21 21 21 22 21 21 21 22 23 24 25 25 25 23 23
33 33 34 34 32 33 33 32 32 31 30 28 27 26 25 25 25 24 23 23 23 23 23 22 22 22 21 21 20 21 22 23 24 24 24 23 21 21
32 32 32 33 33 34 35 34 34 34 33 33 31 29 28 27 27 27 26 25 25 25 24 23 22 22 21 20 20 21 22 23 23 23 22 21 20 21
30 32 33 34 35 35 35 35 35 35 34 34 34 33 31 29 28 28 27 26 26 26 25 24 23 22 21 20 21 21 21 22 22 21 20 20 20 21
30 31 32 33 35 35 35 36 36 36 36 36 36 36 35 33 32 30 28 27 27 26 26 25 24 23 22 21 21 21 21 21 21 20 20 20 20 20
28 30 31 32 33 34 35 36 36 36 36 36 36 37 36 36 35 32 30 28 28 27 27 25 25 24 23 23 22 22 21 21 21 21 20 20 20 19
27 27 28 29 31 32 34 35 35 35 35 35 34 35 36 36 35 32 30 28 27 27 27 25 25 24 24 24 23 22 22 21 21 22 21 21 20 19
26 26 26 26 26 29 31 32 32 32 33 34 34 35 35 35 33 30 29 29 29 28 27 25 25 25 25 24 24 23 22 22 22 22 22 21 20 19
25 25 25 25 25 25 27 29 31 31 32 33 35 35 35 35 33 31 31 31 31 29 27 26 25 24 24 24 24 23 23 22 22 22 22 21 21 20
25 25 24 24 24 25 26 28 30 31 31 32 34 35 34 33 33 32 32 33 33 31 28 27 26 25 24 24 23 23 22 22 22 22 22 22 22 21
25 24 24 23 22 23 25 27 28 29 31 32 33 34 33 32 32 32 33 34 33 31 29 28 28 27 26 25 24 24 23 23 22 21 22 22 22 22
25 24 23 22 22 23 24 25 26 27 28 30 31 32 33 33 33 34 34 35 34 32 31 30 30 29 28 27 26 26 25 25 24 23 22 22 23 23
25 24 22 22 22 22 22 23 25 26 27 28 30 32 33 34 35 36 37 37 36 35 33 32 32 31 31 30 29 29 29 28 26 25 24 23 24 24
24 23 22 22 22 21 21 21 22 23 24 26 29 31 32 34 35 36 38 39 39 38 37 35 35 34 33 32 31 30 30 30 29 28 27 27 26 26
22 22 22 22 21 21 21 21 21 20 21 24 27 29 32 35 37 37 38 40 41 40 38 37 36 35 34 33 33 33 32 32 32 31 31 30 30 30
20 20 20 20 20 21 21 21 21 20 20 22 24 28 31 34 35 37 38 39 40 40 40 39 38 36 35 34 34 34 33 32 32 32 33 33 33 33
17 18 18 19 19 20 21 21 21 22 22 22 23 25 27 29 32 33 35 37 37 37 37 37 37 36 35 34 34 35 34 33 33 34 35 35 36 36
15 16 17 18 19 20 21 22 22 23 23 24 24 25 26 28 29 30 32 34 35 36 37 37 36 36 36 36 36 36 36 35 36 36 37 37 38 39
12 14 16 17 19 20 21 22 23 23 24 25 26 27 28 29 30 31 32 33 34 35 35 36 37 37 37 37 36 35 35 37 38 39 39 39 39 40
11 13 14 16 18 19 20 22 23 24 25 26 27 28 30 31 32 33 34 34 34 34 34 35 35 36 36 36 36 36 37 38 38 38 39 39 39 39
9 11 12 14 15 17 18 20 21 23 24 24 26 27 28 30 32 33 34 35 35 36 35 35 34 34 34 34 35 36 37 38 38 36 36 36 36 36
Wind_Direction
232 230 229 232 236 239 241 241 244 246 243 242 244 245 244 245 246 246 246 246 246 246 245 246 247 248 249 250 253 257 260 259 260 263 267 271 272 271
236 232 230 233 236 238 239 241 243 245 244 243 244 247 247 246 246 246 246 245 244 245 246 247 249 251 252 253 255 258 260 260 262 266 269 271 271 269
236 234 232 234 237 237 238 240 242 243 246 247 247 248 249 248 246 246 246 245 246 247 248 250 251 253 254 255 256 258 260 262 266 269 270 271 270 269
237 234 233 235 237 239 241 241 242 243 245 249 250 250 250 249 249 248 249 249 250 251 252 252 254 254 254 255 257 259 262 266 269 270 270 270 270 271
237 236 236 236 238 241 241 242 243 245 245 247 250 251 249 249 250 251 252 252 254 255 254 254 254 254 253 255 258 261 264 267 268 268 269 269 272 276
240 240 240 241 242 243 242 243 244 246 247 247 249 250 248 248 250 252 252 253 255 255 254 254 254 254 255 258 261 264 268 269 268 266 266 269 275 283
244 243 244 244 243 242 242 243 245 248 249 249 249 249 248 247 249 251 252 253 254 254 254 254 254 254 257 262 265 268 270 269 266 264 266 270 278 287
246 245 247 248 244 242 243 245 247 249 249 250 249 248 246 246 248 250 251 251 252 254 254 254 253 256 259 263 266 269 269 268 265 264 267 272 280 289
248 248 248 248 245 243 243 245 247 248 248 247 246 245 244 245 245 247 247 247 248 250 251 253 255 258 261 263 265 266 267 266 265 265 266 271 278 287
249 249 249 249 247 245 244 244 244 246 246 245 243 243 244 243 243 243 242 242 245 247 250 253 258 261 264 264 264 264 265 266 265 264 265 268 273 279
249 249 250 250 250 248 246 245 245 247 248 246 243 241 242 240 238 238 238 241 245 247 249 254 259 263 265 264 264 264 265 266 266 264 263 264 266 270
249 248 248 247 247 248 248 248 249 249 247 246 243 240 238 236 235 235 237 241 243 245 249 253 258 262 264 265 263 262 263 265 267 266 263 261 261 263
249 248 247 248 248 248 247 248 248 249 249 247 243 239 236 235 235 236 237 240 244 246 249 252 256 260 263 265 264 262 263 265 266 266 264 260 258 258
249 249 248 248 248 250 250 252 252 251 251 248 245 241 239 238 237 238 239 241 244 246 249 252 255 258 261 264 266 265 264 265 266 266 264 261 257 254
247 247 247 248 248 251 254 256 257 257 257 253 247 244 242 241 241 241 241 242 244 246 248 251 254 257 260 263 266 266 265 265 266 265 263 260 257 253
243 243 244 246 249 252 256 260 262 262 261 258 252 248 245 243 242 243 243 244 245 246 248 250 253 256 258 261 264 266 266 265 264 262 261 259 257 254
241 240 241 245 250 254 258 262 265 267 263 258 253 248 245 244 244 245 245 245 244 245 246 248 251 253 256 259 262 264 265 265 262 260 259 257 256 254
235 237 241 245 251 254 258 261 264 265 264 260 256 252 249 247 245 245 246 247 246 245 246 248 250 253 256 258 260 261 262 263 261 260 259 259 257 256
233 239 243 248 253 256 258 259 262 264 264 263 262 260 257 254 251 249 248 248 248 247 247 249 251 254 257 257 257 258 259 259 260 260 261 262 262 260
239 245 249 252 256 259 261 262 264 265 266 266 265 264 262 260 259 258 257 255 252 252 252 252 254 257 258 257 257 257 257 259 260 261 263 264 265 265
249 252 255 257 260 263 264 265 266 267 268 269 268 266 265 264 262 261 260 259 258 256 256 255 256 256 255 257 258 259 258 259 261 263 263 264 266 266
256 258 259 261 262 264 265 267 269 270 270 270 269 268 266 264 263 261 260 259 258 258 257 257 257 256 256 256 258 259 260 261 261 263 263 264 264 264
266 267 268 268 268 270 270 271 271 272 272 272 271 270 269 266 263 261 260 258 257 256 256 257 257 256 256 257 257 258 259 260 261 263 262 263 263 264
Height
5810 5814 5817 5820 5824 5827 5830 5833 5835 5836 5838 5839 5840 5841 5843 5844 5845 5846 5848 5849 5851 5852 5853 5854 5855 5857 5858 5859 5860 5861 5862 5863 5864 5864 5864 5864 5864 5864
5803 5807 5811 5814 5818 5821 5824 5827 5829 5831 5833 5835 5836 5837 5839 5840 5841 5842 5843 5845 5846 5848 5849 5850 5850 5851 5852 5853 5854 5855 5856 5857 5858 5858 5858 5858 5857 5857
5796 5800 5804 5808 5811 5814 5817 5820 5823 5825 5827 5829 5831 5833 5834 5835 5836 5837 5839 5840 5842 5843 5844 5845 5845 5846 5847 5847 5848 5849 5850 5851 5851 5851 5851 5851 5850 5850
5789 5793 5797 5801 5804 5807 5810 5813 5816 5819 5821 5823 5825 5827 5829 5830 5831 5832 5833 5835 5837 5838 5838 5839 5840 5840 5841 5842 5842 5843 5844 5844 5844 5844 5844 5844 5844 5843
5783 5786 5790 5793 5797 5800 5803 5806 5809 5811 5814 5816 5818 5821 5823 5824 5825 5826 5827 5829 5831 5832 5832 5833 5834 5835 5835 5836 5836 5837 5837 5838 5838 5837 5837 5837 5837 5836
5777 5779 5782 5785 5789 5792 5795 5798 5801 5803 5806 5809 5811 5813 5816 5818 5819 5819 5821 5822 5824 5825 5826 5827 5828 5828 5829 5830 5830 5831 5831 5831 5831 5831 5831 5832 5831 5830
5770 5772 5775 5777 5780 5783 5787 5790 5792 5795 5798 5800 5803 5805 5808 5810 5811 5812 5814 5816 5817 5819 5820 5821 5822 5823 5823 5824 5824 5824 5825 5825 5825 5826 5826 5825 5825 5823
5763 5765 5767 5769 5772 5775 5778 5781 5784 5787 5789 5792 5794 5797 5800 5802 5804 5806 5808 5809 5811 5812 5814 5815 5816 5817 5817 5818 5818 5818 5819 5819 5819 5820 5820 5819 5818 5817
5756 5758 5760 5762 5764 5767 5769 5772 5775 5777 5780 5783 5785 5788 5790 5793 5795 5798 5800 5802 5804 5805 5806 5808 5809 5810 5811 5811 5812 5812 5813 5813 5813 5814 5814 5813 5813 5811
5750 5751 5753 5755 5757 5759 5761 5764 5766 5769 5771 5774 5777 5780 5782 5785 5788 5791 5793 5795 5796 5798 5799 5801 5802 5803 5804 5805 5805 5806 5807 5807 5807 5808 5808 5807 5807 5806
5743 5745 5746 5748 5750 5752 5754 5756 5758 5761 5763 5766 5768 5771 5773 5776 5780 5783 5786 5787 5789 5791 5793 5795 5796 5796 5797 5798 5798 5799 5800 5801 5801 5801 5801 5801 5801 5801
5736 5738 5740 5741 5743 5745 5747 5749 5751 5752 5755 5757 5759 5762 5765 5768 5771 5775 5777 5779 5781 5784 5786 5788 5789 5789 5790 5791 5792 5792 5793 5794 5794 5795 5795 5795 5795 5795
5729 5731 5733 5735 5737 5738 5740 5742 5743 5745 5746 5748 5751 5754 5756 5759 5763 5766 5769 5771 5774 5777 5779 5780 5781 5782 5783 5784 5785 5785 5786 5787 5788 5788 5788 5789 5789 5789
5722 5724 5726 5728 5730 5732 5733 5734 5736 5737 5739 5741 5743 5746 5749 5751 5754 5757 5760 5763 5765 5769 5771 5772 5773 5774 5775 5776 5777 5778 5778 5779 5780 5781 5782 5782 5782 5782
5716 5718 5720 5722 5724 5725 5727 5728 5729 5730 5732 5733 5735 5738 5740 5743 5746 5748 5751 5754 5756 5759 5761 5763 5764 5765 5766 5767 5768 5769 5770 5771 5772 5773 5774 5774 5774 5775
5709 5711 5714 5716 5718 5720 5721 5722 5723 5723 5724 5726 5727 5729 5731 5734 5736 5739 5741 5744 5747 5749 5751 5753 5755 5756 5757 5758 5759 5760 5761 5762 5763 5764 5765 5765 5766 5766
5703 5706 5708 5711 5712 5714 5715 5716 5717 5717 5718 5718 5719 5721 5723 5725 5727 5729 5731 5733 5736 5738 5741 5743 5744 5746 5747 5749 5750 5751 5751 5752 5753 5754 5755 5755 5756 5756
5698 5700 5703 5705 5707 5708 5709 5710 5711 5711 5711 5712 5712 5713 5714 5716 5717 5719 5721 5723 5725 5727 5729 5731 5733 5735 5737 5739 5740 5740 5741 5741 5742 5743 5744 5745 5745 5746
5693 5696 5698 5700 5701 5702 5703 5704 5705 5705 5705 5705 5706 5706 5707 5708 5708 5709 5711 5712 5714 5716 5718 5720 5722 5724 5726 5728 5729 5729 5730 5731 5732 5732 5733 5734 5735 5736
5690 5692 5694 5695 5696 5697 5698 5698 5698 5699 5699 5699 5699 5699 5700 5700 5701 5701 5702 5703 5704 5705 5707 5709 5711 5713 5714 5716 5717 5718 5719 5720 5721 5722 5722 5723 5723 5723
5687 5688 5689 5690 5691 5691 5692 5692 5692 5692 5692 5692 5692 5691 5691 5692 5692 5693 5693 5694 5695 5696 5697 5699 5700 5700 5701 5703 5705 5707 5708 5708 5710 5710 5711 5711 5711 5711
5684 5685 5685 5686 5686 5686 5686 5685 5685 5685 5684 5683 5683 5682 5682 5682 5682 5683 5683 5684 5685 5685 5686 5688 5688 5689 5690 5691 5693 5694 5695 5696 5697 5698 5698 5699 5699 5699
5681 5681 5681 5681 5680 5680 5679 5679 5678 5677 5676 5675 5674 5673 5672 5672 5672 5672 5672 5673 5673 5674 5675 5677 5677 5678 5679 5680 5681 5682 5683 5684 5685 5686 5686 5686 5687 5688